TimeEDT,TemperatureF,Dew PointF,Humidity,Sea Level PressureIn,VisibilityMPH,Wind Direction,Wind SpeedMPH,Gust SpeedMPH,PrecipitationIn,Events,Conditions,WindDirDegrees,DateUTC
12:15 AM,44.6,39.2,81,29.93,10.0,SE,6.9,-,N/A,,Scattered Clouds,130,2011-10-19 04:15:00
12:55 AM,46.4,37.4,71,29.95,10.0,SSE,4.6,-,N/A,,Partly Cloudy,160,2011-10-19 04:55:00
1:15 AM,46.4,37.4,71,29.94,10.0,SE,9.2,-,N/A,,Mostly Cloudy,140,2011-10-19 05:15:00
1:35 AM,46.4,37.4,71,29.94,10.0,SE,5.8,-,N/A,,Mostly Cloudy,140,2011-10-19 05:35:00
1:55 AM,46.4,37.4,71,29.94,10.0,SE,3.5,-,N/A,,Mostly Cloudy,130,2011-10-19 05:55:00
2:15 AM,46.4,37.4,71,29.94,10.0,Calm,Calm,-,N/A,,Mostly Cloudy,0,2011-10-19 06:15:00
2:35 AM,46.4,37.4,71,29.93,10.0,Calm,Calm,-,N/A,,Mostly Cloudy,0,2011-10-19 06:35:00
2:55 AM,46.4,37.4,71,29.92,10.0,SSE,5.8,-,N/A,,Mostly Cloudy,150,2011-10-19 06:55:00
3:15 AM,46.4,39.2,76,29.94,10.0,WNW,3.5,-,N/A,,Mostly Cloudy,290,2011-10-19 07:15:00
3:35 AM,46.4,39.2,76,29.94,10.0,ESE,8.1,-,N/A,,Overcast,120,2011-10-19 07:35:00
3:55 AM,46.4,37.4,71,29.94,10.0,West,3.5,-,N/A,,Overcast,280,2011-10-19 07:55:00
4:15 AM,44.6,39.2,81,29.95,10.0,SE,3.5,-,N/A,,Overcast,140,2011-10-19 08:15:00
4:35 AM,48.2,39.2,71,29.94,10.0,South,3.5,-,N/A,,Overcast,190,2011-10-19 08:35:00
4:55 AM,48.2,39.2,71,29.94,10.0,East,3.5,-,N/A,,Overcast,90,2011-10-19 08:55:00
5:15 AM,44.6,41.0,87,29.93,10.0,SSE,5.8,-,N/A,,Mostly Cloudy,150,2011-10-19 09:15:00
5:35 AM,44.6,41.0,87,29.94,10.0,NNE,3.5,-,N/A,,Overcast,20,2011-10-19 09:35:00
5:55 AM,46.4,39.2,76,29.94,10.0,SSE,5.8,-,N/A,,Mostly Cloudy,150,2011-10-19 09:55:00
6:15 AM,46.4,41.0,81,29.93,10.0,Calm,Calm,-,N/A,,Mostly Cloudy,0,2011-10-19 10:15:00
6:35 AM,48.2,39.2,71,29.93,10.0,SE,4.6,-,N/A,,Overcast,130,2011-10-19 10:35:00
6:55 AM,48.2,39.2,71,29.93,10.0,SE,4.6,-,N/A,,Overcast,130,2011-10-19 10:55:00
7:15 AM,51.8,37.4,58,29.92,10.0,Calm,Calm,-,N/A,,Scattered Clouds,0,2011-10-19 11:15:00
7:35 AM,51.8,37.4,58,29.93,10.0,West,3.5,-,N/A,,Clear,260,2011-10-19 11:35:00
7:55 AM,51.8,37.4,58,29.95,10.0,SSW,4.6,-,N/A,,Partly Cloudy,200,2011-10-19 11:55:00
8:35 AM,51.8,37.4,58,29.95,10.0,SSE,11.5,-,N/A,,Scattered Clouds,160,2011-10-19 12:35:00
8:55 AM,53.6,37.4,54,29.96,10.0,SSE,16.1,21.9,N/A,,Mostly Cloudy,150,2011-10-19 12:55:00
9:15 AM,51.8,39.2,62,29.97,10.0,SSE,13.8,17.3,0.01,,Overcast,150,2011-10-19 13:15:00
9:35 AM,51.8,39.2,62,29.96,10.0,SE,9.2,19.6,0.01,,Overcast,140,2011-10-19 13:35:00
9:55 AM,51.8,41.0,67,29.94,10.0,ESE,10.4,16.1,0.01,,Overcast,120,2011-10-19 13:55:00
10:15 AM,53.6,39.2,58,29.95,10.0,South,6.9,-,N/A,,Overcast,170,2011-10-19 14:15:00
10:35 AM,53.6,41.0,62,29.92,10.0,SE,16.1,23.0,N/A,,Mostly Cloudy,140,2011-10-19 14:35:00
10:55 AM,55.4,41.0,58,29.92,10.0,SE,12.7,19.6,N/A,,Partly Cloudy,130,2011-10-19 14:55:00
11:15 AM,55.4,39.2,54,29.93,10.0,SE,12.7,19.6,N/A,,Mostly Cloudy,130,2011-10-19 15:15:00
11:35 AM,57.2,41.0,55,29.93,10.0,SE,5.8,18.4,N/A,,Scattered Clouds,140,2011-10-19 15:35:00
12:15 PM,57.2,39.2,51,29.89,10.0,SE,12.7,26.5,N/A,,Mostly Cloudy,130,2011-10-19 16:15:00
12:55 PM,57.2,39.2,51,29.87,10.0,ESE,17.3,27.6,N/A,,Overcast,120,2011-10-19 16:55:00
1:15 PM,57.2,37.4,48,29.86,10.0,SE,11.5,29.9,N/A,,Overcast,130,2011-10-19 17:15:00
1:35 PM,57.2,37.4,48,29.87,10.0,SSE,3.5,19.6,N/A,,Overcast,160,2011-10-19 17:35:00
1:55 PM,57.2,37.4,48,29.86,10.0,ESE,8.1,-,N/A,,Overcast,110,2011-10-19 17:55:00
2:15 PM,55.4,37.4,51,29.84,10.0,SE,11.5,17.3,N/A,,Overcast,140,2011-10-19 18:15:00
2:55 PM,55.4,39.2,54,29.83,10.0,SE,13.8,21.9,N/A,,Overcast,130,2011-10-19 18:55:00
3:15 PM,53.6,41.0,62,29.82,10.0,SE,10.4,18.4,N/A,,Overcast,130,2011-10-19 19:15:00
3:55 PM,51.8,42.8,71,29.80,10.0,ESE,12.7,21.9,N/A,,Overcast,110,2011-10-19 19:55:00
4:15 PM,51.8,42.8,71,29.80,10.0,SE,15.0,21.9,N/A,,Overcast,130,2011-10-19 20:15:00
4:35 PM,51.8,42.8,71,29.80,10.0,SE,13.8,23.0,N/A,,Overcast,130,2011-10-19 20:35:00
4:55 PM,51.8,42.8,71,29.80,10.0,SE,15.0,24.2,0.01,,Overcast,130,2011-10-19 20:55:00
5:15 PM,50.0,44.6,82,29.79,10.0,ESE,13.8,21.9,N/A,,Overcast,120,2011-10-19 21:15:00
5:35 PM,50.0,44.6,82,29.79,10.0,SSE,12.7,19.6,N/A,,Overcast,150,2011-10-19 21:35:00
5:55 PM,50.0,44.6,82,29.78,10.0,SE,15.0,24.2,N/A,,Overcast,130,2011-10-19 21:55:00
6:35 PM,51.8,44.6,76,29.78,10.0,ESE,13.8,21.9,N/A,,Overcast,110,2011-10-19 22:35:00
6:55 PM,51.8,42.8,71,29.79,10.0,South,8.1,-,N/A,,Overcast,180,2011-10-19 22:55:00
7:15 PM,51.8,44.6,76,29.78,10.0,SSE,5.8,-,N/A,,Overcast,150,2011-10-19 23:15:00
7:35 PM,51.8,44.6,76,29.76,10.0,SE,11.5,-,N/A,,Overcast,140,2011-10-19 23:35:00
7:55 PM,51.8,44.6,76,29.74,10.0,ESE,8.1,-,N/A,,Overcast,110,2011-10-19 23:55:00
8:15 PM,51.8,44.6,76,29.72,10.0,SE,4.6,18.4,N/A,,Overcast,130,2011-10-20 00:15:00
8:35 PM,51.8,44.6,76,29.71,10.0,SE,9.2,-,N/A,,Overcast,140,2011-10-20 00:35:00
9:15 PM,51.8,46.4,82,29.71,10.0,ESE,15.0,29.9,N/A,,Overcast,120,2011-10-20 01:15:00
9:35 PM,51.8,46.4,82,29.71,10.0,SE,17.3,29.9,N/A,,Overcast,130,2011-10-20 01:35:00
9:55 PM,53.6,46.4,77,29.69,10.0,SSE,12.7,28.8,N/A,,Overcast,150,2011-10-20 01:55:00
10:15 PM,53.6,46.4,77,29.67,10.0,ESE,19.6,27.6,N/A,,Overcast,120,2011-10-20 02:15:00
10:35 PM,53.6,46.4,77,29.66,10.0,ESE,17.3,26.5,N/A,,Overcast,120,2011-10-20 02:35:00
10:55 PM,53.6,46.4,77,29.64,10.0,SE,15.0,26.5,N/A,,Overcast,130,2011-10-20 02:55:00
11:15 PM,53.6,48.2,82,29.61,10.0,ESE,15.0,24.2,N/A,,Overcast,120,2011-10-20 03:15:00
11:55 PM,53.6,48.2,82,29.58,10.0,SE,19.6,29.9,N/A,,Overcast,130,2011-10-20 03:55:00